DEMKM EDDL-EDDL

Flight info

Callsign DEMKM
Flight time N/A
Altitude 2200
Route DCT
Aircraft C172/L-S/G

Departure

Time 2026-05-04 19:30
Airport Düsseldorf Airport (EDDL)

Arrival

Time N/A
Airport Düsseldorf Airport (EDDL)
Time Latitude Longitude Altitude Speed Heading
2026-05-04 18:56 51.27613 6.75271 116 ft 0 kts 242°
2026-05-04 19:02 51.27650 6.75238 116 ft 0 kts 242°
2026-05-04 19:16 51.27648 6.75230 116 ft 5 kts 241°
2026-05-04 19:16 51.27648 6.75180 116 ft 4 kts
2026-05-04 19:16 51.27674 6.75187 115 ft 4 kts
2026-05-04 19:16 51.27725 6.75199 116 ft 10 kts 17°
2026-05-04 19:17 51.27790 6.75308 119 ft 17 kts 54°
2026-05-04 19:17 51.27811 6.75353 119 ft 0 kts 45°
2026-05-04 19:17 51.27811 6.75354 119 ft 0 kts 45°
2026-05-04 19:19 51.27812 6.75355 119 ft 2 kts 44°
2026-05-04 19:19 51.27825 6.75379 118 ft 0 kts 63°
2026-05-04 19:19 51.27826 6.75383 119 ft 4 kts 62°
2026-05-04 19:19 51.27883 6.75505 121 ft 17 kts 53°
2026-05-04 19:20 51.27944 6.75633 124 ft 12 kts 52°
2026-05-04 19:20 51.27993 6.75735 124 ft 13 kts 51°
2026-05-04 19:20 51.28056 6.75860 124 ft 11 kts 34°
2026-05-04 19:20 51.28150 6.75916 121 ft 18 kts 28°
2026-05-04 19:21 51.28203 6.75956 122 ft 0 kts 18°
2026-05-04 19:22 51.28192 6.75964 121 ft 5 kts 224°
2026-05-04 19:22 51.28145 6.75916 121 ft 9 kts 208°
2026-05-04 19:22 51.28098 6.75879 122 ft 6 kts 204°
2026-05-04 19:23 51.28081 6.75866 123 ft 0 kts 209°
2026-05-04 19:23 51.28074 6.75861 124 ft 7 kts 187°
2026-05-04 19:23 51.28093 6.75943 122 ft 9 kts 51°
2026-05-04 19:23 51.28133 6.76028 124 ft 11 kts 54°
2026-05-04 19:24 51.28143 6.76050 121 ft 0 kts 53°
2026-05-04 19:24 51.28146 6.76056 124 ft 6 kts 51°
2026-05-04 19:24 51.28201 6.76173 120 ft 14 kts 52°
2026-05-04 19:25 51.28272 6.76321 121 ft 20 kts 52°
2026-05-04 19:25 51.28350 6.76485 118 ft 17 kts 50°
2026-05-04 19:25 51.28418 6.76626 120 ft 15 kts 52°
2026-05-04 19:25 51.28500 6.76800 122 ft 24 kts 52°
2026-05-04 19:26 51.28590 6.76988 121 ft 19 kts 52°
2026-05-04 19:26 51.28668 6.77151 124 ft 21 kts 51°
2026-05-04 19:26 51.28746 6.77318 124 ft 16 kts 53°
2026-05-04 19:26 51.28809 6.77448 124 ft 13 kts 52°
2026-05-04 19:27 51.28862 6.77560 122 ft 14 kts 50°
2026-05-04 19:27 51.28951 6.77636 124 ft 15 kts 327°
2026-05-04 19:27 51.28985 6.77594 121 ft 0 kts 320°
2026-05-04 19:29 51.29043 6.77517 124 ft 9 kts 298°
2026-05-04 19:29 51.29022 6.77425 124 ft 23 kts 233°
2026-05-04 19:29 51.28801 6.76972 132 ft 74 kts 230°
2026-05-04 19:30 51.28453 6.76301 331 ft 82 kts 233°
2026-05-04 19:30 51.28063 6.75589 529 ft 89 kts 217°
2026-05-04 19:30 51.27465 6.75171 661 ft 100 kts 194°
2026-05-04 19:30 51.26835 6.75202 866 ft 85 kts 177°
2026-05-04 19:31 51.26255 6.75096 936 ft 88 kts 194°
2026-05-04 19:31 51.25624 6.74879 1085 ft 100 kts 194°
2026-05-04 19:31 51.24909 6.74673 1226 ft 107 kts 192°
2026-05-04 19:31 51.24181 6.74415 1428 ft 106 kts 196°
2026-05-04 19:32 51.23495 6.74115 1696 ft 100 kts 197°
2026-05-04 19:32 51.22804 6.74018 1919 ft 100 kts 166°
2026-05-04 19:32 51.22136 6.74465 2024 ft 109 kts 158°
2026-05-04 19:32 51.21465 6.74911 2042 ft 101 kts 159°
2026-05-04 19:33 51.20817 6.75339 1994 ft 103 kts 159°
2026-05-04 19:33 51.20164 6.75742 2021 ft 97 kts 161°
2026-05-04 19:33 51.19539 6.76142 2021 ft 97 kts 158°
2026-05-04 19:33 51.18923 6.76567 2023 ft 96 kts 158°
2026-05-04 19:34 51.18311 6.76989 2028 ft 96 kts 158°
2026-05-04 19:34 51.17699 6.77411 2025 ft 96 kts 158°
2026-05-04 19:34 51.17088 6.77834 2022 ft 96 kts 158°
2026-05-04 19:34 51.16477 6.78256 2021 ft 96 kts 158°
2026-05-04 19:35 51.15866 6.78677 2021 ft 96 kts 158°
2026-05-04 19:35 51.15257 6.79099 2023 ft 95 kts 158°
2026-05-04 19:35 51.14651 6.79519 2022 ft 95 kts 158°
2026-05-04 19:35 51.14043 6.79939 2022 ft 95 kts 158°
2026-05-04 19:36 51.13436 6.80358 2025 ft 95 kts 158°
2026-05-04 19:36 51.12830 6.80776 2024 ft 95 kts 158°
2026-05-04 19:36 51.12230 6.81191 2025 ft 95 kts 158°
2026-05-04 19:36 51.11623 6.81609 2027 ft 95 kts 158°
2026-05-04 19:37 51.11017 6.82027 2022 ft 95 kts 158°
2026-05-04 19:37 51.10444 6.82538 2029 ft 95 kts 147°
2026-05-04 19:37 51.09895 6.83111 2023 ft 95 kts 148°
2026-05-04 19:37 51.09347 6.83686 2021 ft 94 kts 148°
2026-05-04 19:38 51.08804 6.84258 2033 ft 94 kts 148°
2026-05-04 19:38 51.08247 6.84837 2028 ft 96 kts 148°
2026-05-04 19:38 51.07695 6.85420 2031 ft 95 kts 148°
2026-05-04 19:38 51.07138 6.85994 2034 ft 95 kts 155°
2026-05-04 19:39 51.06489 6.86164 2032 ft 95 kts 173°
2026-05-04 19:39 51.05839 6.86306 2032 ft 94 kts 174°
2026-05-04 19:39 51.05194 6.86443 2031 ft 93 kts 174°
2026-05-04 19:39 51.04537 6.86581 2032 ft 96 kts 174°
2026-05-04 19:40 51.03879 6.86718 2042 ft 96 kts 174°
2026-05-04 19:40 51.03205 6.86860 2026 ft 99 kts 174°
2026-05-04 19:40 51.02536 6.87001 2029 ft 96 kts 172°
2026-05-04 19:40 51.01879 6.87278 2030 ft 99 kts 167°
2026-05-04 19:41 51.01209 6.87571 2040 ft 100 kts 166°
2026-05-04 19:41 51.00597 6.88125 2026 ft 101 kts 148°
2026-05-04 19:41 51.00011 6.88726 2029 ft 103 kts 148°
2026-05-04 19:41 50.99367 6.89390 2038 ft 116 kts 149°
2026-05-04 19:42 50.98686 6.90103 2040 ft 118 kts 148°
2026-05-04 19:42 50.97984 6.90828 2034 ft 120 kts 148°
2026-05-04 19:42 50.97308 6.91527 2022 ft 113 kts 148°
2026-05-04 19:42 50.96662 6.92198 2017 ft 109 kts 148°
2026-05-04 19:43 50.96034 6.92852 2028 ft 108 kts 148°
2026-05-04 19:43 50.95405 6.93501 2026 ft 109 kts 148°
2026-05-04 19:43 50.94985 6.93942 2021 ft 109 kts 148°
2026-05-04 19:43 50.94361 6.94592 2030 ft 107 kts 148°
2026-05-04 19:44 50.93740 6.95237 2032 ft 107 kts 149°
2026-05-04 19:44 50.93107 6.95889 2027 ft 108 kts 148°
2026-05-04 19:44 50.92479 6.96538 2027 ft 107 kts 148°
2026-05-04 19:44 50.91856 6.97182 2025 ft 106 kts 148°
2026-05-04 19:45 50.91239 6.97825 2022 ft 106 kts 148°
2026-05-04 19:45 50.90619 6.98461 2027 ft 107 kts 149°
2026-05-04 19:45 50.89996 6.99132 2021 ft 109 kts 141°
2026-05-04 19:45 50.89513 7.00071 1958 ft 112 kts 121°
2026-05-04 19:46 50.89154 7.01150 1787 ft 111 kts 116°
2026-05-04 19:46 50.88854 7.02254 1577 ft 107 kts 113°
2026-05-04 19:46 50.88562 7.03263 1438 ft 96 kts 117°
2026-05-04 19:46 50.88282 7.04176 1309 ft 92 kts 120°
2026-05-04 19:47 50.87945 7.05069 1285 ft 97 kts 127°
2026-05-04 19:47 50.87505 7.05879 1286 ft 98 kts 136°
2026-05-04 19:47 50.87016 7.06659 1347 ft 102 kts 136°
2026-05-04 19:47 50.86496 7.07471 1310 ft 106 kts 137°
2026-05-04 19:48 50.85957 7.08310 1264 ft 108 kts 136°
2026-05-04 19:48 50.85452 7.09109 1230 ft 100 kts 136°
2026-05-04 19:48 50.84953 7.09890 1212 ft 101 kts 137°
2026-05-04 19:48 50.84450 7.10655 1224 ft 101 kts 136°
2026-05-04 19:49 50.83964 7.11412 1306 ft 95 kts 137°
2026-05-04 19:49 50.83491 7.12131 1349 ft 94 kts 138°
2026-05-04 19:49 50.83022 7.12834 1381 ft 94 kts 137°
2026-05-04 19:49 50.82553 7.13541 1434 ft 92 kts 138°
2026-05-04 19:50 50.82076 7.14237 1464 ft 92 kts 140°
2026-05-04 19:50 50.81680 7.14980 1500 ft 90 kts 100°
2026-05-04 19:50 50.82023 7.15707 1433 ft 92 kts 32°
2026-05-04 19:50 50.82589 7.16290 1350 ft 99 kts 33°
2026-05-04 19:51 50.83171 7.16886 1202 ft 100 kts 30°
2026-05-04 19:51 50.83791 7.16897 1067 ft 91 kts 324°
2026-05-04 19:51 50.84266 7.16189 934 ft 98 kts 318°
2026-05-04 19:51 50.84748 7.15485 748 ft 93 kts 316°
2026-05-04 19:52 50.85185 7.14849 586 ft 78 kts 316°
2026-05-04 19:52 50.85566 7.14289 465 ft 76 kts 317°
2026-05-04 19:52 50.85941 7.13743 283 ft 66 kts 317°
2026-05-04 19:52 50.86216 7.13348 247 ft 44 kts 317°
2026-05-04 19:53 50.86436 7.13027 243 ft 40 kts 317°
2026-05-04 19:53 50.86649 7.12716 236 ft 41 kts 317°